Hourly Data Report for June 28, 2021

WESTERN HEAD
NOVA SCOTIA
Current Station Operator: ECCC - MSC

43°59'24.070" N
64°39'51.008" W
10.10 m
8206240
71411
WWE

Download Data

Hourly Data (June 2021)
Hourly Data Report for June 28, 2021
TIME
LST
Temp Definition
°C
Dew Point Definition
°C
Rel Hum Definition
%
Precip. Amount Definition
mm

Wind Dir Definition
10's deg

Wind Spd Definition
km/h
Visibility Definition
km
Stn Press Definition
kPa
Hmdx Definition


Wind Chill Definition


Weather Definition


00:00 10.3 LegendMM LegendMM 0.0 21 18   101.75     LegendNANA
01:00 10.5 LegendMM LegendMM 0.0 20 24   101.72     LegendNANA
02:00 10.7 LegendMM LegendMM 0.0 21 15   101.73     LegendNANA
03:00 10.5 LegendMM LegendMM 0.0 22 10   101.71     LegendNANA
04:00 10.9 LegendMM LegendMM 0.0 19 11   101.70     LegendNANA
05:00 12.4 LegendMM LegendMM 0.0 20 11   101.70     LegendNANA
06:00 13.7 LegendMM LegendMM 0.0 20 10   101.74     LegendNANA
07:00 15.8 LegendMM LegendMM 0.0 22 15   101.71     LegendNANA
08:00 18.5 LegendMM LegendMM 0.0 23 20   101.73     LegendNANA
09:00 18.7 LegendMM LegendMM 0.0 23 17   101.70     LegendNANA
10:00 18.0 18.0 100 0.0 22 15   101.66     LegendNANA
11:00 17.5 17.1 98 0.0 21 14   101.69     LegendNANA
12:00 15.7 15.1 97 0.0 20 16   101.66     LegendNANA
13:00 15.7 15.4 98 0.0 20 25   101.64     LegendNANA
14:00 16.0 14.2 89 0.0 20 24   101.59     LegendNANA
15:00 14.5 13.1 92 0.0 22 18   101.61     LegendNANA
16:00 13.5 13.5 100 0.0 22 15   101.62     LegendNANA
17:00 13.0 12.6 97 0.0 22 15   101.59     LegendNANA
18:00 13.8 13.4 97 0.0 22 12   101.60     LegendNANA
19:00 14.2 13.7 97 0.0 23 12   101.62     LegendNANA
20:00 11.8 11.9 100 0.0 23 13   101.65     LegendNANA
21:00 12.0 LegendMM LegendMM 0.0 22 9   101.69     LegendNANA
22:00 13.1 LegendMM LegendMM 0.0 24 13   101.72     LegendNANA
23:00 14.2 LegendMM LegendMM 0.0 24 12   101.70     LegendNANA

Notes on Data Quality.

Legend

  • E = Estimated
  • M = Missing
  • NA = Not Available*
  • [empty] = Indicates an unobserved value
Date modified: